Wind_Speed
3 3 4 5 5 6 6 6 7 8 8 9 9 9 9 9 9 8 8 8 8 8 8 8 7 7 7 8 7 7 8 7 7 7 7 7 7 7 7 7 7 7 6
5 5 6 7 7 7 8 8 9 9 10 10 10 10 10 10 10 10 9 9 10 10 9 9 9 9 9 9 9 9 9 9 8 8 9 9 8 8 8 8 7 7 7
7 7 7 8 9 9 9 10 10 11 11 12 12 12 12 12 11 11 11 11 11 11 10 10 10 10 9 9 10 10 10 10 10 10 10 10 9 9 9 9 8 8 8
7 8 8 9 10 10 11 11 12 12 13 13 13 13 13 12 12 12 12 12 12 11 11 11 11 11 10 10 10 11 11 11 11 11 11 11 11 11 10 10 9 9 9
9 9 9 10 11 11 12 12 13 13 13 13 14 14 14 14 14 14 13 13 13 12 12 12 12 12 11 11 11 12 12 12 12 12 12 12 12 12 12 12 11 11 11
10 10 11 11 12 12 12 12 13 14 14 14 15 15 15 14 14 14 14 14 14 13 13 13 13 13 13 13 13 13 13 13 13 14 13 13 13 13 13 13 13 13 13
11 12 12 12 12 13 12 13 14 14 14 15 15 15 15 16 16 15 15 15 15 15 14 15 15 15 15 14 14 14 14 14 13 14 14 13 13 14 14 14 15 15 15
13 13 13 12 13 14 14 14 14 15 16 16 17 17 17 17 17 17 16 16 16 16 16 16 16 16 16 16 16 16 16 16 15 15 14 14 15 16 16 16 16 17 16
14 14 14 14 15 15 15 15 16 17 18 19 19 20 19 18 18 17 17 17 17 17 17 18 18 18 18 17 17 17 18 17 17 17 16 16 17 17 17 17 17 18 17
14 15 16 16 16 16 17 17 18 19 20 21 21 21 20 19 19 18 18 18 18 19 18 19 19 19 19 19 19 19 19 19 20 19 18 18 19 19 19 19 18 18 18
15 16 16 16 17 18 19 20 20 20 21 22 22 22 21 21 20 20 20 19 19 19 19 20 20 20 20 20 20 20 21 21 21 21 20 20 21 20 20 21 20 20 20
17 17 18 18 19 19 20 20 21 21 22 23 23 23 23 22 22 21 21 20 20 20 21 21 21 21 21 21 21 21 22 22 22 22 21 22 22 22 22 22 22 22 21
18 19 19 19 20 21 21 22 23 22 22 23 23 23 23 23 22 22 21 21 21 22 21 21 22 22 22 22 22 22 23 24 23 23 23 24 23 23 23 23 22 22 22
18 19 20 21 21 22 23 23 23 23 23 23 23 23 23 23 23 23 22 22 23 23 22 22 22 22 22 23 23 23 24 25 25 25 23 23 24 24 24 23 24 23 23
18 19 20 21 22 23 24 24 24 24 24 24 23 24 24 24 24 24 24 24 24 24 24 24 24 24 23 24 24 23 23 24 25 25 25 25 25 26 26 25 24 24 24
19 20 21 21 23 24 25 24 25 25 25 25 25 24 24 25 24 24 25 25 25 24 24 24 25 25 25 25 25 25 25 25 25 24 26 26 26 26 27 26 26 26 25
20 21 22 23 24 25 26 26 25 25 26 26 26 26 25 25 26 26 27 27 27 27 27 27 27 27 27 27 26 25 25 26 26 26 27 27 28 27 27 27 26 27 27
22 23 23 24 25 26 26 25 26 25 25 27 27 27 26 27 27 27 28 28 29 30 29 29 28 28 29 29 28 27 27 27 27 27 28 28 29 28 28 28 27 27 27
24 24 24 24 25 25 25 26 26 26 27 27 26 26 27 27 28 29 29 30 31 31 31 31 30 30 29 29 29 28 28 27 28 28 28 28 29 29 29 29 29 29 28
24 24 25 25 25 26 26 26 27 27 27 27 27 27 27 29 29 30 30 31 31 32 32 32 32 31 30 30 30 29 28 28 28 29 29 29 29 28 28 29 29 30 28
25 25 25 25 26 27 28 28 28 26 27 27 28 28 29 29 30 31 32 32 32 32 33 33 33 32 31 30 30 29 29 28 28 28 28 28 29 29 28 28 29 29 28
26 26 27 27 27 28 28 28 27 26 27 27 28 29 29 30 31 32 32 32 33 32 32 32 32 32 31 31 30 29 29 29 29 28 28 28 28 29 29 29 29 28 29
26 26 27 27 27 28 28 27 27 27 28 28 29 29 30 31 32 32 33 33 33 32 31 31 32 32 30 30 30 29 29 29 28 28 28 29 29 28 29 29 29 29 28
26 26 27 27 27 28 27 27 28 28 29 29 30 30 31 32 31 31 32 32 32 32 31 31 31 30 29 29 30 30 29 29 29 29 29 29 29 28 28 28 28 28 28
25 25 26 27 27 27 26 27 29 29 29 29 30 30 30 30 30 31 31 31 31 30 30 30 29 28 27 28 28 28 29 29 29 29 28 29 29 29 29 29 29 28 29
26 26 26 26 26 26 26 27 28 29 29 29 29 30 29 29 29 30 30 30 29 28 27 26 26 26 26 26 26 27 27 28 28 28 28 28 28 29 28 29 28 28 28
Wind_Direction
278 278 288 292 289 286 289 295 297 296 293 291 290 290 290 290 294 296 298 300 299 299 297 297 297 295 292 291 290 290 289 288 287 283 280 278 276 273 272 274 276 274 271
279 284 292 292 294 293 293 294 295 294 292 290 290 291 293 293 294 295 296 298 299 299 298 296 296 295 292 288 286 284 284 281 279 277 276 275 273 270 268 268 271 267 265
279 282 288 290 291 291 291 291 292 293 294 294 293 294 294 296 295 295 296 298 298 299 298 297 295 295 292 287 283 282 280 275 273 274 274 273 271 269 267 265 264 261 261
279 283 284 285 289 290 290 290 291 293 294 295 296 295 294 296 297 297 297 298 298 297 297 297 295 293 292 288 284 281 279 275 270 270 270 271 270 268 266 263 260 259 259
279 283 285 285 289 291 291 291 292 293 293 295 296 296 294 295 297 297 297 298 298 296 295 296 294 291 289 286 282 280 280 276 271 269 269 268 268 268 265 263 262 261 260
281 284 285 288 289 289 290 292 293 293 295 297 298 297 297 297 299 299 299 299 298 296 294 293 291 288 287 284 281 280 278 278 274 272 270 268 268 268 267 263 262 262 262
283 285 285 287 291 291 291 292 293 294 296 299 300 299 299 299 298 298 298 296 295 294 294 294 292 289 287 285 282 281 279 277 275 273 272 270 268 268 268 266 263 263 262
284 283 286 287 290 294 291 290 290 293 296 298 298 300 300 298 295 294 295 294 293 291 291 291 290 288 286 283 280 278 278 277 275 273 270 265 264 266 269 268 266 263 263
284 284 285 289 290 293 293 291 291 294 296 297 297 298 297 296 294 293 293 293 292 291 290 290 289 288 286 283 279 276 274 274 272 268 270 267 267 267 267 268 267 263 261
284 284 285 290 292 294 295 295 295 295 296 296 296 296 295 294 292 292 292 292 291 291 290 290 288 286 283 280 278 276 273 273 273 269 270 269 267 267 266 265 267 264 259
287 288 289 292 293 293 294 296 296 296 296 296 295 295 295 294 293 292 293 293 292 293 292 290 288 286 283 279 277 275 273 272 273 272 271 269 267 265 266 265 267 265 258
290 290 289 291 293 294 295 296 297 297 296 296 296 295 294 295 294 292 293 296 296 295 292 290 288 285 283 281 278 277 275 273 272 272 271 269 265 264 265 265 266 263 259
292 294 293 293 295 296 296 295 295 296 297 297 296 295 294 294 294 294 295 296 297 297 294 291 290 286 283 281 279 277 275 274 274 273 271 269 267 265 265 265 265 261 258
293 295 294 295 298 298 297 296 296 295 295 296 296 294 295 296 296 294 294 294 295 294 293 292 288 287 284 279 278 277 276 274 275 273 271 271 270 268 268 266 265 260 256
295 296 296 296 298 299 299 297 298 297 294 294 295 295 295 296 295 293 292 292 292 293 294 293 291 288 286 285 281 279 277 275 275 274 272 271 271 270 269 269 264 259 255
296 297 301 300 299 297 298 296 296 297 295 294 295 296 295 295 295 294 293 292 292 292 293 292 291 290 288 287 285 281 278 276 274 274 274 271 272 271 268 267 264 258 255
297 298 298 299 299 297 298 298 296 295 294 293 292 293 293 293 294 293 293 293 293 293 292 291 290 289 287 286 284 282 278 277 275 275 275 273 273 271 267 264 261 259 256
298 297 297 298 298 298 298 298 296 294 293 292 291 291 292 293 294 293 292 292 292 292 292 291 289 288 286 285 284 283 280 278 277 276 274 273 272 271 267 263 259 258 255
298 297 295 296 297 297 296 296 295 293 294 293 289 289 290 292 294 294 293 292 291 291 291 290 289 288 286 284 283 283 281 278 275 275 274 272 270 269 267 263 259 257 256
297 298 294 294 295 296 296 296 295 293 292 293 291 292 293 294 294 293 293 291 290 290 290 289 289 289 286 283 281 280 278 276 276 274 273 270 267 268 267 262 260 259 257
296 298 297 294 292 293 294 295 294 293 293 294 293 293 294 295 297 296 294 293 290 290 290 289 287 287 286 284 281 279 277 277 276 275 274 270 267 268 267 263 259 259 257
296 296 296 295 293 294 295 295 294 294 295 295 295 295 295 296 297 297 296 295 292 289 289 289 287 286 285 284 282 279 277 276 276 274 272 270 268 265 265 263 260 258 257
294 294 294 294 294 294 294 293 294 295 296 297 296 295 294 295 295 296 295 294 291 290 288 288 288 286 284 283 282 280 279 276 276 275 273 271 268 265 263 263 260 259 259
293 293 293 293 294 296 296 294 295 296 296 297 296 295 296 297 296 296 297 296 293 291 288 287 288 286 283 282 282 281 279 277 276 275 275 272 269 266 264 263 261 259 258
291 292 293 293 295 297 298 297 296 296 298 300 300 300 299 299 299 297 297 297 295 293 290 289 288 286 283 281 280 280 279 278 276 276 273 271 269 267 265 264 261 260 259
290 290 291 292 294 295 297 297 300 301 301 301 302 303 302 302 302 300 300 299 298 296 293 291 289 286 283 281 280 280 280 280 276 275 273 269 266 265 265 264 262 261 261
Height
5906 5905 5906 5906 5906 5906 5905 5905 5905 5905 5904 5903 5903 5902 5901 5901 5900 5899 5898 5897 5896 5896 5895 5894 5894 5893 5892 5892 5891 5891 5890 5890 5889 5889 5889 5889 5889 5889 5889 5889 5889 5890 5890
5905 5905 5905 5905 5905 5905 5904 5904 5904 5903 5903 5902 5901 5901 5900 5899 5898 5897 5897 5896 5895 5894 5894 5893 5892 5892 5891 5890 5890 5889 5889 5888 5888 5888 5888 5888 5888 5888 5888 5888 5888 5888 5889
5904 5904 5904 5904 5904 5904 5903 5903 5903 5902 5901 5901 5900 5899 5898 5897 5896 5896 5895 5894 5894 5893 5892 5892 5891 5890 5890 5889 5888 5888 5887 5887 5886 5886 5886 5886 5886 5886 5886 5886 5886 5887 5887
5903 5903 5903 5903 5903 5902 5902 5901 5901 5900 5900 5899 5898 5897 5896 5896 5895 5894 5893 5892 5891 5891 5890 5890 5889 5888 5888 5887 5886 5886 5885 5885 5885 5884 5885 5884 5884 5884 5884 5884 5885 5885 5886
5902 5902 5902 5901 5901 5900 5900 5899 5899 5898 5898 5897 5896 5895 5894 5893 5892 5892 5891 5890 5889 5888 5888 5887 5887 5886 5885 5885 5884 5884 5883 5883 5882 5882 5883 5883 5882 5882 5882 5882 5883 5883 5884
5901 5901 5900 5900 5899 5899 5898 5897 5897 5896 5895 5894 5893 5892 5891 5891 5890 5889 5888 5887 5887 5886 5885 5885 5884 5883 5883 5882 5882 5881 5881 5881 5880 5880 5880 5880 5879 5879 5880 5880 5880 5881 5881
5899 5899 5898 5898 5897 5896 5896 5895 5894 5894 5893 5892 5891 5890 5889 5888 5887 5886 5885 5885 5884 5883 5882 5882 5881 5881 5880 5879 5879 5878 5878 5878 5878 5877 5877 5878 5877 5876 5876 5877 5878 5878 5879
5897 5896 5896 5895 5895 5894 5893 5893 5892 5891 5890 5889 5888 5887 5886 5885 5884 5883 5882 5881 5881 5880 5879 5878 5878 5877 5877 5876 5876 5875 5875 5875 5875 5875 5874 5874 5873 5873 5874 5874 5875 5875 5876
5894 5894 5893 5893 5892 5891 5891 5890 5889 5888 5888 5886 5885 5884 5882 5881 5880 5880 5879 5878 5877 5876 5876 5875 5874 5874 5873 5872 5872 5872 5871 5871 5871 5871 5871 5872 5871 5870 5870 5871 5871 5872 5872
5892 5891 5891 5890 5889 5889 5888 5887 5887 5886 5884 5883 5882 5880 5879 5878 5877 5876 5875 5874 5873 5872 5871 5871 5870 5869 5869 5869 5868 5868 5867 5867 5867 5867 5867 5868 5867 5867 5866 5867 5868 5868 5869
5889 5889 5888 5888 5887 5886 5885 5884 5883 5882 5881 5880 5878 5877 5875 5874 5873 5872 5871 5870 5869 5868 5867 5866 5866 5865 5865 5864 5864 5864 5863 5863 5863 5862 5863 5863 5862 5862 5862 5863 5864 5864 5865
5886 5886 5885 5885 5884 5883 5882 5881 5880 5879 5877 5876 5874 5873 5872 5871 5869 5868 5867 5866 5865 5864 5863 5862 5861 5860 5860 5860 5859 5859 5859 5858 5858 5858 5858 5858 5857 5857 5858 5858 5859 5860 5861
5884 5883 5882 5881 5880 5879 5878 5877 5876 5875 5873 5872 5870 5869 5868 5866 5865 5864 5862 5861 5860 5859 5858 5857 5856 5856 5855 5855 5854 5854 5854 5853 5853 5853 5853 5853 5852 5852 5853 5853 5854 5855 5856
5881 5880 5879 5878 5877 5875 5874 5873 5872 5870 5869 5868 5866 5865 5864 5862 5861 5859 5858 5857 5856 5855 5854 5853 5852 5851 5850 5849 5849 5848 5848 5848 5848 5847 5846 5847 5847 5847 5847 5848 5849 5850 5851
5877 5876 5876 5874 5873 5871 5870 5868 5867 5866 5864 5863 5862 5861 5859 5858 5856 5855 5853 5852 5851 5850 5849 5848 5846 5846 5845 5843 5843 5842 5841 5842 5842 5841 5841 5842 5842 5842 5842 5843 5844 5845 5846
5874 5873 5872 5871 5869 5867 5866 5863 5862 5861 5860 5858 5857 5856 5854 5853 5852 5850 5849 5847 5846 5845 5844 5842 5841 5840 5839 5838 5837 5836 5836 5836 5836 5836 5836 5836 5836 5836 5836 5837 5838 5839 5840
5871 5869 5868 5867 5865 5863 5861 5859 5858 5857 5855 5854 5852 5851 5849 5848 5846 5845 5844 5842 5840 5839 5838 5837 5835 5834 5833 5832 5831 5831 5830 5830 5829 5829 5829 5829 5829 5830 5830 5831 5832 5833 5834
5866 5865 5864 5862 5861 5859 5857 5855 5853 5852 5850 5848 5847 5845 5844 5842 5841 5839 5838 5836 5835 5833 5832 5830 5829 5827 5826 5826 5824 5824 5823 5823 5823 5822 5822 5822 5822 5823 5823 5823 5825 5826 5828
5862 5861 5859 5857 5856 5854 5853 5851 5849 5847 5845 5843 5841 5839 5838 5837 5835 5833 5831 5830 5828 5827 5825 5824 5822 5821 5819 5818 5817 5816 5816 5815 5815 5815 5814 5815 5815 5815 5816 5816 5818 5820 5821
5858 5856 5854 5853 5851 5849 5848 5846 5844 5842 5840 5837 5835 5833 5832 5831 5829 5826 5825 5823 5821 5820 5818 5816 5814 5813 5812 5811 5810 5809 5808 5808 5807 5807 5807 5807 5807 5808 5808 5809 5811 5812 5814
5853 5851 5850 5848 5846 5844 5843 5840 5838 5836 5834 5832 5830 5828 5826 5824 5822 5820 5818 5815 5813 5812 5810 5808 5806 5805 5804 5803 5802 5801 5801 5800 5800 5800 5799 5800 5799 5800 5801 5801 5802 5805 5807
5848 5847 5845 5843 5841 5839 5837 5835 5833 5831 5829 5827 5824 5822 5820 5818 5815 5813 5811 5808 5806 5804 5802 5800 5799 5797 5796 5795 5794 5793 5793 5793 5792 5792 5792 5792 5792 5793 5794 5794 5796 5798 5800
5843 5842 5840 5838 5836 5834 5832 5829 5827 5825 5823 5821 5818 5816 5814 5811 5808 5806 5803 5800 5798 5796 5794 5793 5791 5789 5788 5787 5786 5785 5785 5785 5785 5785 5784 5784 5785 5785 5786 5787 5788 5790 5792
5838 5837 5835 5832 5830 5828 5825 5823 5821 5819 5817 5814 5812 5809 5807 5804 5801 5799 5796 5793 5790 5788 5786 5784 5783 5781 5780 5779 5778 5777 5777 5777 5777 5777 5777 5776 5777 5777 5778 5779 5781 5782 5784
5833 5831 5829 5827 5825 5823 5820 5818 5815 5812 5810 5808 5805 5802 5799 5797 5794 5791 5788 5785 5783 5780 5778 5776 5775 5773 5772 5771 5771 5770 5770 5769 5769 5769 5769 5769 5769 5770 5771 5772 5773 5775 5777
5827 5825 5823 5821 5820 5817 5815 5812 5809 5806 5803 5801 5798 5795 5793 5790 5787 5784 5781 5778 5775 5773 5770 5768 5767 5766 5765 5764 5763 5763 5762 5762 5761 5761 5761 5761 5762 5762 5763 5764 5766 5768 5769